Somerville, NJ

6:20 AM EDT on July 26, 2017 (GMT -0400)
Somerset

Weather History for KSMQ - November, 2012

Change the Weather History Date:

Friday, November 9, 2012

  Actual Average Record
Temperature  
Mean Temperature 44 °F -  
Max Temperature 55 °F 55 °F 76 °F (1975)
Min Temperature 33 °F 33 °F 18 °F (1971)
Degree Days  
Heating Degree Days 20    
Moisture  
Dew Point 27 °F    
Average Humidity 56    
Maximum Humidity 92    
Minimum Humidity 28    
Precipitation  
Precipitation 0.00 in - - ()
Sea Level Pressure  
Sea Level Pressure 30.09 in    
Wind  
Wind Speed 9 mph (NW)    
Max Wind Speed 16 mph    
Max Gust Speed 26 mph    
Visibility 10 miles    
Events      
Averages and records for this station are not official NWS values.
T = Trace of Precipitation, MM = Missing Value Source: NWS Daily Summary

Daily Weather History Graph

Daily Weather History Graph

Search for Another Location

Airport or City:

Trip Planner

Search our weather history database for the weather conditions in past years. The results will help you decide how hot, cold, wet, or windy it might be!

Date:

Astronomy

Nov. 09, 2012 Rise Set
Actual Time 6:38 AM EST 4:45 PM EST
Civil Twilight 6:09 AM EST 5:14 PM EST
Nautical Twilight 5:37 AM EST 5:47 PM EST
Astronomical Twilight 5:04 AM EST 6:19 PM EST
Moon 1:33 AM EST (11/9) 1:58 PM EST (11/9)
Length of Visible Light 11h 04m
Length of Day
10h 07m
Waning Crescent, 23% of the Moon is Illuminated
Nov 9
Waning Crescent
Nov 13
New
Nov 20
First Quarter
Nov 28
Full
Dec 6
Last Quarter

Hourly Weather History & Observations

Time (EST) Temp. Windchill Dew Point Humidity Pressure Visibility Wind Dir Wind Speed Gust Speed Precip Events Conditions
12:53 AM 37.9 °F 31.5 °F 25.0 °F 60% 29.96 in 10.0 mi NNW 9.2 mph - N/A   Clear
1:53 AM 37.0 °F 31.6 °F 25.0 °F 62% 29.98 in 10.0 mi NNW 6.9 mph - N/A   Clear
2:53 AM 37.0 °F 30.4 °F 25.0 °F 62% 29.98 in 10.0 mi NW 9.2 mph 18.4 mph N/A   Clear
3:53 AM 37.0 °F 30.4 °F 24.1 °F 59% 29.99 in 10.0 mi NW 9.2 mph 18.4 mph N/A   Clear
4:53 AM 37.0 °F 31.0 °F 24.1 °F 59% 30.01 in 10.0 mi NW 8.1 mph - N/A   Clear
5:53 AM 37.0 °F 29.8 °F 25.0 °F 62% 30.02 in 10.0 mi NW 10.4 mph - N/A   Clear
6:53 AM 37.9 °F 30.5 °F 25.0 °F 60% 30.04 in 10.0 mi NW 11.5 mph - N/A   Clear
7:53 AM 41.0 °F 33.5 °F 26.1 °F 55% 30.07 in 10.0 mi NW 13.8 mph 23.0 mph N/A   Clear
8:53 AM 44.1 °F 36.8 °F 26.1 °F 49% 30.08 in 10.0 mi NNW 16.1 mph 26.5 mph N/A   Clear
9:53 AM 46.0 °F 39.6 °F 26.1 °F 46% 30.09 in 10.0 mi NNW 15.0 mph 26.5 mph N/A   Clear
10:53 AM 50.0 °F - 25.0 °F 38% 30.10 in 10.0 mi NW 12.7 mph 23.0 mph N/A   Clear
11:53 AM 52.0 °F - 24.1 °F 34% 30.09 in 10.0 mi WNW 11.5 mph 20.7 mph N/A   Clear
12:53 PM 54.0 °F - 21.9 °F 29% 30.08 in 10.0 mi NW 13.8 mph 19.6 mph N/A   Clear
1:53 PM 55.9 °F - 23.0 °F 28% 30.07 in 10.0 mi WNW 9.2 mph - N/A   Clear
2:53 PM 54.0 °F - 26.1 °F 34% 30.07 in 10.0 mi NW 13.8 mph 20.7 mph N/A   Clear
3:53 PM 53.1 °F - 28.0 °F 38% 30.08 in 10.0 mi NW 8.1 mph - N/A   Clear
4:53 PM 51.1 °F - 30.0 °F 44% 30.11 in 10.0 mi NW 6.9 mph - N/A   Clear
5:53 PM 46.9 °F - 30.9 °F 54% 30.13 in 10.0 mi Calm Calm - N/A   Clear
6:53 PM 41.0 °F - 30.9 °F 67% 30.17 in 10.0 mi Calm Calm - N/A   Clear
7:53 PM 37.9 °F - 30.9 °F 76% 30.18 in 10.0 mi Calm Calm - N/A   Clear
8:53 PM 39.0 °F - 30.9 °F 73% 30.19 in 10.0 mi Calm Calm - N/A   Clear
9:53 PM 36.0 °F - 30.9 °F 82% 30.20 in 10.0 mi Calm Calm - N/A   Clear
10:53 PM 34.0 °F - 30.0 °F 85% 30.21 in 10.0 mi Calm Calm - N/A   Clear
11:53 PM 33.1 °F - 30.9 °F 92% 30.22 in 10.0 mi Calm Calm - N/A   Clear